Back to catalog

KAZSTSAT

AliveCommunicationsSSO
NORAD 43783·PAYLOAD·🇰🇿 Kazakhstan

Launched Dec 3, 2018 from Vandenberg Space Force Base

Loading…

Next Passes (next 24 hours)

TLE

FreshSource: Space-Track

Epoch: Sep 14, 2026, 13:20 UTC

1 43783U 18099AB  26257.55599163  .00001182  00000-0  99377-4 0  9998
2 43783  97.4213 285.4215 0013425 107.7383 252.5307 15.00024821424708

Track KAZSTSAT in real time with AllMySat

Download on the App Store